Theta_e
301 302 301 302 302 302 300 301 301 300 301 301 299 298 297 297 295 294 295 299 299 299 302 303 303 306 307 306 309 312 315 317 319 322 319 321 322 323 324 325 326 327 329 331 332 335 337 338 340 343 344 345 346 347 348 350 352 354 356 356 356 356 355 355 355 356 356 356 357 356 356 355 355 354 354 354 354 353 353 352 352 351 351 349 348 346 344
300 301 301 302 301 301 301 300 301 301 301 300 301 300 300 298 297 298 298 298 300 301 303 305 306 307 307 309 312 314 315 321 321 324 320 321 322 323 323 324 325 327 329 332 333 334 336 337 339 341 344 344 345 346 347 349 351 353 355 355 355 355 355 355 356 356 356 356 356 356 356 355 355 354 354 354 353 353 352 352 352 351 350 350 348 347 345
298 301 302 302 302 301 300 300 301 302 301 301 301 302 301 301 299 298 297 298 298 301 302 305 306 306 311 312 310 312 318 322 325 324 321 322 323 323 324 325 325 327 329 332 333 334 335 337 339 341 343 345 346 346 347 348 350 352 354 354 355 355 355 356 356 356 356 356 356 355 355 355 355 354 354 353 353 352 352 352 351 351 350 349 348 348 346
294 300 300 301 302 301 299 298 299 299 300 299 300 299 301 299 297 298 298 296 297 299 303 306 308 306 307 308 308 312 315 320 324 322 322 322 322 323 324 325 325 326 328 332 333 334 336 338 339 341 343 344 345 346 346 347 349 351 352 353 354 354 355 356 356 355 355 355 355 355 355 355 355 354 354 353 352 351 351 351 351 351 349 349 349 348 347
291 299 300 300 300 299 296 297 299 300 299 300 302 303 304 304 303 299 296 296 299 302 306 304 306 306 306 306 308 311 313 321 323 322 322 323 323 324 325 325 326 327 329 332 334 335 337 338 340 342 344 345 345 346 346 347 349 350 351 352 353 354 355 355 355 355 355 355 354 354 354 355 355 354 353 352 351 350 350 351 351 350 349 349 348 348 347
292 297 299 300 296 290 292 302 303 303 301 301 299 298 300 303 304 300 302 303 302 302 304 305 304 306 304 306 308 310 311 315 318 321 323 328 327 326 326 327 327 329 331 333 335 336 337 339 341 343 345 346 347 348 348 348 347 348 350 351 352 353 354 355 355 355 355 354 354 354 354 355 355 354 353 352 352 351 351 351 350 350 349 348 348 348 347
292 297 297 295 289 291 301 305 305 305 305 304 302 303 303 303 303 305 305 307 305 305 306 307 305 305 308 310 307 309 312 312 317 318 319 322 326 329 328 328 329 329 331 333 335 336 337 339 340 342 343 346 347 348 348 347 347 348 349 350 351 353 353 354 355 355 354 354 353 353 354 354 354 354 353 353 352 351 351 351 350 350 349 348 348 348 347
295 294 294 289 290 301 307 306 307 310 303 303 306 306 311 314 308 305 309 311 311 310 310 310 308 310 312 314 316 316 315 316 317 315 320 324 324 325 327 329 330 332 333 333 334 336 339 340 341 341 341 344 346 347 348 348 347 347 348 349 351 352 352 354 355 355 354 354 353 353 353 353 353 353 353 353 352 352 351 351 352 352 351 350 348 348 347
292 292 293 292 301 303 305 305 306 306 303 303 303 301 307 315 315 314 313 314 315 315 316 316 317 314 312 311 315 319 319 317 316 316 317 318 320 320 325 332 333 334 336 337 338 338 339 340 341 341 342 342 344 347 348 348 347 347 347 348 349 351 352 353 354 355 355 354 353 353 353 352 352 353 353 353 353 353 351 351 351 351 351 350 349 348 347
297 293 290 293 293 292 296 303 310 310 309 309 312 310 306 313 317 317 317 315 316 316 316 314 316 315 308 306 312 318 321 318 320 320 318 313 312 317 323 329 333 335 336 339 341 341 340 341 342 344 343 343 343 344 346 348 347 347 346 346 348 350 351 352 354 355 355 355 353 353 352 352 352 353 354 355 354 353 351 351 351 351 352 351 349 348 346
299 295 289 288 289 291 298 306 310 310 311 312 311 309 300 311 318 316 319 318 317 317 316 315 313 308 305 308 312 319 320 321 321 322 325 320 316 311 320 328 331 334 337 339 342 347 346 343 345 346 345 344 343 343 345 346 347 346 346 346 347 348 349 351 353 355 356 355 355 353 353 352 353 353 354 354 355 354 353 352 351 352 351 349 348 347 346
297 295 291 288 293 296 306 310 310 311 312 310 305 294 298 310 317 318 318 317 318 318 318 318 317 313 308 313 316 321 322 324 330 332 333 331 333 338 315 328 335 335 338 339 339 342 345 345 346 347 347 345 344 344 344 346 346 345 346 347 348 348 349 350 351 353 355 355 355 354 354 353 353 354 354 355 354 353 353 352 351 350 348 348 346 344 343
297 296 294 292 299 308 311 312 314 315 315 308 297 289 303 313 318 321 321 320 320 319 318 317 315 317 318 318 320 325 329 332 334 335 336 338 341 343 344 341 334 335 338 339 339 340 343 346 348 349 348 346 344 343 344 345 344 346 347 348 348 347 347 348 349 351 354 355 355 355 355 355 355 354 354 354 354 353 352 350 348 346 345 345 343 340 340
295 296 293 292 298 306 312 314 316 317 310 298 292 306 313 318 319 321 323 323 323 322 320 319 319 322 326 329 328 329 331 331 330 330 331 333 336 341 346 344 331 324 334 340 340 340 341 343 346 348 349 347 345 344 344 343 345 347 347 347 347 346 346 346 347 350 353 355 356 356 356 356 355 354 355 355 354 353 351 347 345 343 341 340 339 337 337
301 298 294 289 286 302 313 313 312 316 304 303 308 317 319 322 320 322 323 325 326 326 324 324 325 328 330 329 328 329 332 334 335 334 331 331 330 333 339 341 341 329 331 337 341 341 344 347 347 347 346 346 346 345 344 345 347 347 347 347 345 345 345 345 346 349 352 353 355 357 357 357 356 354 354 353 352 349 346 345 343 341 340 339 337 335 334
294 295 293 292 303 308 314 312 305 312 315 317 320 318 316 320 321 323 325 326 328 329 329 330 332 333 334 335 336 337 338 339 340 340 339 340 339 335 338 342 340 341 337 338 341 341 344 345 346 347 347 345 344 343 344 348 348 348 347 347 346 344 344 345 347 349 352 354 356 358 357 356 355 353 352 351 348 346 344 343 341 339 337 336 334 333 332
302 299 304 311 312 313 315 314 313 314 319 322 322 321 321 322 324 326 326 325 327 329 329 329 330 331 333 334 336 336 336 338 338 337 336 336 336 337 338 340 343 341 338 337 336 339 342 342 343 343 344 344 343 342 345 347 347 348 348 349 350 347 347 349 351 354 356 357 357 357 356 355 352 350 348 346 343 341 341 339 338 336 334 334 333 331 330
314 313 312 315 315 315 314 316 317 316 317 318 323 326 324 325 326 326 325 326 327 327 329 328 327 329 330 333 334 335 336 336 336 336 334 334 334 334 335 335 338 343 346 341 339 336 335 336 338 339 341 342 340 340 347 351 355 356 355 352 352 352 352 354 355 357 356 356 355 355 354 353 351 350 347 344 341 339 338 337 336 334 332 332 331 331 329
301 295 313 311 313 315 314 313 315 317 317 317 317 314 316 318 321 323 325 326 326 326 327 327 326 327 329 330 331 332 333 334 335 334 333 332 332 332 331 334 336 336 336 335 334 335 334 335 338 341 341 341 341 342 346 350 353 357 357 356 353 354 355 356 357 356 355 352 351 350 350 349 348 346 344 342 339 337 336 334 333 332 331 331 331 330 330
304 304 310 312 316 317 315 314 312 313 315 316 316 315 316 317 318 318 318 319 319 323 322 324 325 325 328 328 328 329 329 330 331 333 333 331 330 331 331 333 334 333 333 332 333 334 334 335 337 338 340 340 341 342 345 352 355 353 353 354 355 356 356 356 355 354 352 353 349 346 345 345 343 341 340 340 337 335 335 334 333 332 331 331 330 330 330
307 310 314 314 315 314 312 313 314 314 315 315 314 315 315 316 316 316 317 317 317 317 318 320 322 322 323 327 329 329 329 329 330 330 332 333 332 331 331 332 333 332 332 331 331 332 332 334 336 336 337 338 340 340 341 342 346 350 350 350 352 354 353 352 351 350 349 347 345 342 334 322 320 330 337 337 333 327 323 331 335 333 332 331 332 333 333
299 303 308 313 304 303 308 311 313 314 315 316 313 313 313 314 314 315 316 316 316 316 317 318 320 319 320 322 325 327 328 328 329 330 331 332 334 333 333 334 333 333 333 332 331 331 330 331 332 334 335 335 337 339 339 340 340 339 338 339 341 342 344 346 345 345 342 338 333 330 327 321 317 311 306 303 316 330 323 314 318 322 321 332 334 335 334
300 311 314 315 313 310 311 312 314 315 316 317 316 312 313 313 313 314 315 314 314 315 316 318 318 318 318 319 320 321 322 325 329 331 331 332 333 335 332 331 332 333 334 334 332 332 331 331 331 332 333 336 335 337 337 338 339 337 338 337 336 336 336 334 332 334 334 332 332 330 328 326 322 319 316 309 296 297 303 306 305 306 310 313 318 324 333
312 315 315 316 313 309 310 313 314 315 317 318 317 318 316 313 314 313 312 312 313 313 314 316 317 318 318 318 319 319 320 322 324 326 330 333 334 336 337 335 333 332 333 333 331 331 331 332 330 329 331 335 336 338 337 336 336 335 336 334 332 332 332 331 330 329 330 329 328 327 326 325 324 323 321 318 313 300 296 300 299 297 300 307 308 312 316
310 318 317 316 314 314 316 315 314 315 317 318 315 316 318 316 313 314 312 312 312 313 313 313 316 318 318 318 318 318 320 322 324 326 328 331 334 334 335 335 335 335 335 336 336 335 334 333 332 331 330 332 336 336 336 338 338 336 335 333 331 331 332 331 330 329 329 329 328 327 326 325 325 325 324 322 318 314 309 298 296 296 296 298 303 307 307
318 318 318 318 317 315 315 317 313 315 316 316 315 314 316 319 317 314 312 311 311 312 312 313 314 316 318 317 317 318 319 321 325 327 326 328 330 332 332 333 336 338 339 340 340 337 335 335 336 337 335 336 338 338 340 341 341 340 339 337 335 334 333 332 331 330 329 327 326 327 327 327 327 326 325 323 321 319 318 318 317 308 300 296 295 298 298
319 320 316 311 311 312 314 313 311 316 316 317 316 316 317 315 316 314 312 312 312 312 311 312 314 316 317 318 317 318 318 320 323 324 326 327 328 330 332 333 334 334 334 335 337 338 337 335 334 334 334 337 343 342 341 340 339 338 338 337 337 338 338 336 332 331 331 330 329 329 328 328 327 326 324 323 323 323 323 322 321 318 314 310 299 294 302
315 317 318 311 308 310 312 314 315 316 316 316 316 316 317 316 313 311 310 311 311 312 313 313 314 315 316 317 316 315 317 319 320 323 325 326 329 330 331 331 332 332 332 332 333 336 337 336 334 332 333 335 337 339 339 339 338 338 338 337 336 336 336 336 334 333 331 330 329 329 328 326 326 325 324 324 324 323 320 321 318 313 310 306 305 302 296
315 316 317 315 314 314 315 316 315 315 314 315 316 314 316 314 313 313 312 312 311 312 312 313 315 316 316 316 315 315 315 317 319 321 323 326 329 330 331 331 331 331 330 330 330 332 333 334 334 334 334 335 337 338 340 341 340 339 339 339 338 337 336 335 334 333 332 331 329 329 327 325 325 325 324 324 324 322 322 320 318 315 309 307 308 308 307
313 314 315 316 317 317 316 313 313 313 313 313 312 311 312 313 312 312 314 315 314 312 312 313 314 315 316 317 317 315 315 315 316 319 322 325 327 330 331 331 330 330 329 328 328 329 329 330 331 331 333 335 337 336 338 338 338 338 338 338 337 336 336 335 334 333 332 330 329 328 326 325 325 324 324 323 323 323 322 319 316 312 310 311 314 313 310
312 313 313 313 313 314 314 314 313 314 314 312 311 311 310 311 311 311 312 313 315 315 316 315 315 315 316 317 316 316 314 312 314 316 318 322 325 328 329 330 328 326 326 327 327 328 328 328 329 330 332 335 335 334 336 337 336 336 336 336 335 327 326 328 330 333 331 330 330 329 327 325 325 324 324 323 323 322 320 318 316 314 314 314 314 314 311
312 312 312 312 312 312 312 312 313 314 315 314 311 308 308 309 309 310 311 312 312 313 313 315 316 317 317 317 318 316 313 311 310 312 316 319 322 325 328 328 329 330 327 328 329 329 328 327 327 328 330 333 334 334 334 334 334 334 335 338 333 332 329 327 330 330 331 332 331 329 328 326 325 325 324 323 322 320 319 317 316 315 314 314 314 312 309
310 308 308 309 311 311 310 311 312 312 313 312 312 313 313 312 311 312 312 313 313 313 312 313 315 316 318 317 317 316 314 311 310 310 312 316 318 322 326 328 327 327 327 328 329 329 328 327 327 329 329 331 331 332 332 332 331 331 331 332 332 332 334 328 328 330 333 332 330 329 328 328 327 326 325 325 323 321 319 318 317 317 316 316 314 312 310
309 308 309 310 311 309 309 310 312 313 313 315 314 314 315 315 315 314 314 314 314 314 314 315 316 318 319 319 317 315 313 310 310 311 311 314 316 319 320 322 324 326 326 328 329 330 330 329 328 329 330 331 331 330 329 329 328 329 330 331 330 329 329 329 330 331 330 330 330 332 331 329 328 327 327 326 324 322 320 319 319 318 317 316 313 311 306
314 313 314 314 313 314 315 313 313 314 314 314 315 315 315 315 315 317 319 317 315 315 315 317 318 320 321 320 320 319 316 312 310 310 311 315 317 320 319 316 316 321 324 325 326 328 331 332 330 330 331 331 331 329 329 329 328 328 329 330 330 330 330 330 330 330 330 330 329 328 328 328 327 331 329 325 324 323 322 321 320 318 318 315 313 311 307
316 315 315 314 315 316 315 315 316 315 314 314 315 315 315 315 315 315 315 316 316 317 317 318 318 318 319 319 320 321 319 319 317 314 312 313 316 321 322 318 317 318 322 323 325 327 330 334 339 338 332 333 332 332 331 330 329 329 329 329 329 330 330 329 328 327 326 326 326 327 326 327 328 327 327 325 325 324 322 321 320 320 318 316 314 311 308
317 314 314 314 314 314 314 314 314 315 315 315 315 315 315 316 315 316 317 318 318 317 317 317 316 315 314 315 317 318 319 320 322 322 322 323 324 324 324 324 324 323 323 322 325 328 330 333 336 336 330 329 331 332 333 334 328 329 328 328 327 327 326 326 325 325 324 324 324 325 327 326 325 326 327 325 324 323 322 321 323 319 317 316 314 312 309
317 316 316 315 315 315 314 315 316 316 316 316 316 318 317 315 316 316 316 317 317 318 318 318 317 317 318 319 319 319 319 320 321 322 322 322 323 322 322 322 322 323 322 322 326 328 330 333 333 329 324 325 327 330 334 336 336 329 327 325 325 326 325 324 324 324 324 324 325 323 324 324 324 324 324 324 324 324 323 323 322 319 317 315 313 312 311
314 315 314 314 314 314 314 315 316 316 316 315 315 316 317 317 317 316 316 317 318 319 318 318 318 318 318 317 317 318 319 320 320 320 320 320 321 319 319 321 322 324 324 327 326 329 332 333 331 325 325 325 327 331 336 335 335 326 325 325 326 326 325 326 325 323 323 323 323 323 322 322 322 322 320 321 322 324 327 324 321 320 316 315 313 312 312
313 314 314 314 313 313 313 313 314 315 316 316 315 314 315 315 315 316 316 316 317 319 318 318 317 317 317 317 316 317 318 319 319 319 319 320 320 319 319 321 323 325 330 333 328 329 332 333 328 323 323 323 324 325 331 333 330 325 324 324 323 324 324 325 323 322 323 323 324 326 320 319 318 317 317 318 320 322 322 322 321 319 317 315 314 313 313
313 313 314 313 313 313 313 313 312 313 314 314 314 314 315 315 315 315 315 315 316 318 317 316 315 316 315 316 317 317 318 319 319 318 318 319 318 317 317 317 321 324 328 329 328 329 330 329 327 324 324 323 325 333 326 330 323 322 323 324 323 323 322 323 323 323 322 323 322 318 318 317 318 318 316 317 318 320 320 320 320 318 317 316 314 313 312
312 312 312 312 312 311 312 312 313 312 313 314 316 315 315 316 316 315 316 316 316 317 318 320 323 317 317 318 318 318 318 318 318 318 319 318 316 316 316 317 321 323 330 327 326 325 324 324 325 328 325 326 325 330 331 326 322 323 323 324 324 324 323 324 323 321 322 319 317 316 316 315 316 315 316 316 315 316 316 316 315 315 315 315 314 314 313
312 311 311 311 311 311 312 312 312 312 312 313 314 315 315 314 314 314 316 316 316 315 315 315 319 319 318 316 316 316 315 316 317 317 318 318 319 319 318 318 320 323 328 324 321 318 320 321 323 324 328 329 328 330 329 324 323 322 321 322 324 323 323 323 323 321 319 315 315 314 314 314 313 314 313 312 312 311 310 309 309 310 311 308 309 310 311
312 312 312 311 311 312 311 311 311 311 310 311 313 314 314 313 314 314 313 314 315 316 314 313 314 314 316 315 315 315 315 314 314 313 313 313 314 317 321 322 321 325 327 321 320 318 319 321 323 326 329 328 328 327 320 318 319 320 320 319 320 321 321 321 320 317 316 316 316 313 312 313 310 310 310 309 309 308 307 306 305 305 305 305 305 305 304
310 310 310 310 310 310 309 309 309 309 309 310 311 311 312 312 312 312 312 311 312 311 312 310 311 312 313 315 315 315 316 317 316 314 311 311 311 312 318 328 323 324 325 326 319 319 319 322 325 327 328 328 328 325 318 317 316 319 317 317 316 316 317 317 317 318 319 315 313 313 313 311 310 309 308 308 309 307 306 306 306 306 306 305 304 304 303
310 310 310 314 309 308 309 309 310 310 310 309 309 310 310 310 311 312 312 311 311 311 310 310 310 310 310 310 311 310 310 311 311 312 313 314 314 314 321 327 321 329 328 326 318 318 320 328 327 326 327 327 326 317 316 317 317 314 314 315 317 321 317 317 316 316 316 316 314 311 309 309 309 309 308 307 306 306 307 309 307 305 305 304 304 303 302
309 309 309 309 309 309 310 310 310 309 309 309 307 307 309 310 310 309 309 309 309 310 310 310 310 310 310 310 310 308 307 308 309 311 311 312 316 319 322 324 327 327 326 321 321 322 322 322 325 325 325 326 324 316 316 316 315 314 314 314 313 313 314 313 314 314 314 313 315 317 315 312 309 308 309 309 308 307 307 307 304 305 305 306 305 307 306
308 307 306 306 306 307 309 309 308 306 306 307 307 309 309 309 309 308 308 308 308 308 309 309 310 311 311 310 310 310 309 307 306 307 310 311 311 313 315 316 318 321 320 321 321 323 323 323 324 324 323 322 317 315 316 316 316 316 315 314 313 312 311 311 311 311 311 312 311 309 309 308 307 307 307 307 307 307 306 306 307 306 305 305 305 305 304
308 306 305 304 304 304 304 305 306 308 306 307 308 308 309 308 308 308 308 308 307 307 307 307 307 308 309 312 311 309 311 311 308 306 309 310 309 310 312 316 318 317 313 310 310 311 316 315 317 319 320 321 315 315 315 315 316 317 316 315 314 313 312 312 312 312 312 311 309 309 308 307 307 307 307 307 307 306 307 307 306 306 305 304 304 305 305
305 304 303 303 302 302 302 302 303 304 307 309 308 308 308 308 306 306 307 307 309 310 306 306 306 306 307 307 307 307 308 310 311 310 310 310 309 308 310 311 312 314 313 308 308 307 313 313 312 313 312 309 311 314 314 315 315 316 315 315 314 313 312 310 311 310 311 312 311 310 310 309 308 309 310 307 306 307 308 308 308 309 309 308 306 305 304
302 303 302 304 303 304 303 303 304 305 306 308 308 308 307 305 307 311 310 308 306 307 305 305 304 305 305 305 306 307 307 307 311 314 309 308 309 312 311 309 308 310 308 307 306 304 304 305 306 308 306 306 305 307 311 313 314 314 315 313 313 313 312 311 311 311 312 312 311 311 311 311 310 310 309 307 308 307 307 307 307 307 306 305 305 305 304
302 302 301 302 302 302 303 303 303 303 304 306 305 305 304 303 303 303 306 314 308 306 305 304 303 303 304 304 306 305 308 308 307 307 310 309 307 305 308 309 304 305 303 302 302 303 303 305 308 310 309 303 303 304 309 310 310 313 314 314 314 313 313 313 313 312 311 311 311 311 311 311 311 310 310 309 309 309 309 308 306 305 306 305 305 305 305
Wind_Speed
20 18 17 18 12 8 9 16 15 17 18 20 20 16 8 12 11 16 6 8 8 7 8 8 6 8 13 4 7 7 7 6 10 10 10 7 8 9 9 13 14 15 16 16 17 18 18 18 17 17 16 16 15 15 16 17 17 19 18 18 18 18 18 19 19 18 17 15 15 15 16 16 16 16 16 15 14 13 13 14 13 14 14 13 12 13 12
19 20 19 17 19 12 7 10 13 13 19 21 22 18 14 14 9 8 9 9 11 7 7 9 8 8 6 4 3 3 5 3 4 13 13 13 13 10 8 9 12 14 17 17 16 17 17 16 16 16 15 16 17 18 18 18 19 19 17 18 19 19 19 20 18 17 16 15 15 15 16 17 17 16 16 15 15 15 15 15 14 13 12 12 13 14 14
13 20 19 18 19 15 11 9 11 15 15 16 20 19 16 13 11 5 7 9 12 7 5 8 8 6 4 2 2 4 6 5 3 4 9 14 17 17 19 17 17 17 17 16 16 17 17 17 18 17 17 18 17 18 18 18 19 18 18 18 18 19 20 18 17 16 16 16 15 16 17 16 16 16 17 15 15 15 14 14 14 13 13 13 14 14 14
7 13 21 22 18 17 14 10 10 9 12 15 14 15 10 8 7 7 6 6 8 6 7 7 10 6 8 7 5 4 5 5 7 6 7 10 10 15 17 17 16 13 12 14 16 17 17 18 18 17 16 16 16 17 17 18 18 17 18 18 19 19 19 16 16 17 17 16 16 17 16 17 17 17 16 15 15 14 14 14 13 12 13 15 15 13 12
6 11 17 20 19 14 14 18 17 9 6 6 8 10 12 14 12 9 9 10 7 10 9 8 10 9 8 8 5 4 5 7 8 9 7 8 12 14 16 17 16 15 15 15 16 17 16 17 16 17 17 15 16 18 18 19 17 17 19 19 19 19 17 17 17 18 17 17 17 16 17 17 16 15 16 16 15 14 15 14 12 13 15 15 14 13 13
7 17 13 15 13 15 16 6 7 13 11 10 6 4 7 9 10 7 11 12 10 7 5 9 8 10 6 8 8 5 9 9 7 7 9 9 10 8 10 13 16 17 14 13 15 17 17 18 19 19 18 20 20 19 18 15 15 17 18 17 18 18 17 17 17 17 17 18 17 18 17 16 15 16 16 17 15 14 13 12 13 14 14 15 13 13 14
7 12 8 14 16 15 3 3 5 11 13 11 10 3 0 4 5 4 3 2 1 7 6 10 10 8 1 4 2 5 7 3 7 10 9 8 7 12 12 9 8 10 15 18 18 16 16 17 16 15 14 15 14 14 13 14 16 17 17 18 18 17 17 17 17 17 17 18 18 17 17 16 16 16 16 15 14 14 13 14 14 15 15 15 14 13 13
5 6 4 11 10 4 3 3 3 2 5 7 12 6 3 3 2 5 4 5 4 5 3 2 4 7 8 8 6 5 5 4 2 5 12 13 11 11 11 14 15 13 12 12 14 16 16 15 14 14 16 17 16 16 15 17 17 17 17 18 18 17 17 18 18 18 18 18 18 17 17 16 17 17 16 16 16 13 12 12 12 12 11 12 13 14 13
6 4 7 4 2 1 3 2 2 1 3 9 11 6 2 3 3 3 7 2 5 4 0 2 2 1 5 8 9 8 6 5 3 4 2 1 2 5 5 6 9 12 13 13 12 10 10 11 12 14 16 15 15 14 14 15 16 17 16 17 17 18 18 19 19 19 19 19 18 18 17 17 18 17 16 16 14 11 12 13 13 13 13 14 13 13 13
1 4 4 2 5 7 4 2 1 3 5 7 11 11 1 4 4 1 7 5 3 3 2 3 2 1 9 7 7 6 6 4 6 10 4 2 4 4 5 7 9 8 9 12 14 13 14 14 16 16 16 15 15 15 16 16 16 16 16 17 17 18 19 19 20 19 19 19 19 18 17 18 19 17 15 13 13 13 14 14 14 14 14 12 10 11 12
3 3 4 4 4 4 5 2 5 6 7 13 8 10 1 3 1 2 5 6 4 5 7 2 3 5 5 1 3 7 3 2 1 1 4 6 2 5 7 6 8 10 11 13 12 10 11 13 14 14 13 14 15 16 16 17 17 18 18 19 18 19 20 20 19 19 19 19 18 18 18 18 16 16 16 15 13 11 12 12 13 11 10 10 9 8 9
3 7 6 4 2 4 10 14 9 3 8 8 6 7 3 2 4 1 4 8 5 5 5 8 11 8 4 0 2 4 3 2 1 2 3 1 3 3 3 6 8 10 10 10 9 11 13 17 17 16 16 17 19 19 19 18 19 19 20 20 20 20 20 19 17 17 17 18 17 17 18 17 15 16 13 12 13 13 13 11 10 9 9 9 9 7 6
7 8 8 4 2 4 15 15 19 17 2 7 4 6 8 3 1 1 5 6 4 4 8 5 7 1 3 1 3 3 3 5 4 2 1 1 2 3 2 4 6 7 6 8 12 14 14 14 10 8 8 10 12 13 14 15 19 22 21 20 20 20 18 17 17 17 16 17 18 18 16 16 14 13 12 13 13 13 12 9 8 7 8 7 7 6 7
4 7 9 7 2 4 14 22 20 11 2 8 5 5 3 6 4 3 4 7 4 5 7 5 6 4 3 3 4 7 6 3 3 4 4 4 6 6 2 2 4 5 6 8 9 9 8 4 4 6 11 13 14 15 14 15 17 17 16 18 18 18 16 16 17 18 18 16 17 14 13 12 12 13 12 13 13 13 10 9 10 9 7 7 7 7 6
2 2 7 4 1 6 19 23 13 9 3 2 5 6 2 2 5 6 5 5 3 5 8 6 6 6 8 8 6 5 7 8 8 8 8 8 6 4 4 3 2 4 5 6 8 9 7 6 6 6 5 9 12 14 17 20 19 17 16 16 16 14 13 14 15 17 17 17 15 12 13 15 15 14 12 12 10 10 10 10 10 10 9 8 8 7 6
2 1 2 1 4 11 14 11 4 11 5 2 5 8 7 1 3 5 6 8 5 6 9 8 9 8 8 9 9 9 10 10 9 10 10 10 10 9 8 3 3 0 4 3 5 3 1 1 4 6 9 9 9 6 9 11 12 15 17 17 15 12 11 11 12 12 13 15 15 14 15 14 13 13 12 11 11 11 11 12 11 10 8 8 8 9 8
3 2 3 6 7 9 8 9 7 9 14 7 2 8 6 7 5 3 9 7 6 7 10 10 8 10 8 7 8 9 8 9 10 9 8 8 9 9 9 11 11 8 2 5 5 7 10 10 9 5 2 3 1 2 4 3 3 5 7 4 3 9 12 12 12 12 12 13 14 14 15 16 14 13 12 13 11 10 11 10 11 10 9 9 9 9 8
3 4 7 7 7 9 13 10 8 12 13 16 13 7 10 6 5 6 9 6 7 7 7 12 8 8 5 8 9 9 10 10 10 9 11 12 12 12 12 14 14 9 11 13 14 13 13 13 10 8 7 5 5 1 2 5 5 7 7 3 2 6 9 11 13 13 13 12 12 13 14 13 14 14 15 14 13 12 11 11 11 11 10 9 9 9 9
2 1 1 6 8 10 9 11 13 14 13 12 13 13 10 7 8 9 8 8 9 9 10 11 10 8 7 9 8 8 9 10 9 10 9 9 9 10 12 11 10 12 12 13 14 14 15 13 11 9 9 8 6 3 5 2 3 7 8 9 8 6 8 9 11 13 15 13 12 13 13 12 12 11 11 11 12 12 12 12 11 11 10 10 10 9 9
2 1 3 9 5 5 6 9 11 14 15 13 11 10 8 7 10 11 9 9 11 8 10 7 12 10 8 10 8 9 9 8 9 9 9 9 10 9 9 9 10 12 14 13 14 14 12 10 10 10 10 9 8 8 6 3 7 6 7 10 11 9 8 8 10 12 14 20 19 13 13 14 13 11 10 11 12 11 11 12 13 12 11 11 10 10 9
3 2 2 8 7 2 9 11 11 11 11 11 11 11 10 9 11 13 15 13 10 11 9 7 11 13 9 9 8 11 9 10 10 9 8 7 7 8 10 10 11 10 10 12 11 13 10 8 9 9 9 8 8 10 9 7 3 8 10 10 10 11 12 9 8 9 12 14 14 14 12 10 8 7 11 12 11 6 1 4 11 12 10 9 8 8 10
3 3 2 6 3 3 9 11 11 12 13 13 11 9 12 11 10 11 16 13 10 12 11 10 11 13 10 9 8 10 9 9 9 10 10 9 8 9 7 6 7 9 9 8 7 7 5 5 8 7 6 5 4 6 7 8 9 10 9 8 9 8 6 4 6 9 9 10 12 14 16 16 15 12 16 16 9 9 6 7 10 14 14 9 9 9 8
3 2 1 2 1 1 3 6 9 9 10 11 12 11 9 11 10 8 9 12 14 14 12 11 13 12 10 9 10 13 10 9 7 8 10 11 9 8 8 8 9 7 5 3 7 5 3 1 2 7 9 8 7 6 6 9 12 10 7 6 8 9 9 9 7 4 4 6 8 9 11 13 14 15 12 13 18 16 11 9 11 13 10 15 16 12 11
2 2 3 3 3 1 3 6 7 8 7 9 8 9 11 8 8 6 10 10 11 10 11 12 10 10 11 10 11 13 11 11 11 10 9 10 10 9 8 7 5 5 5 4 2 1 1 1 2 4 2 3 2 3 6 9 11 14 11 8 8 5 8 7 10 7 6 6 6 9 9 9 11 13 13 13 11 15 16 13 14 13 12 10 13 14 14
3 0 3 3 7 1 1 2 5 7 8 8 6 6 7 7 6 6 10 9 8 9 9 10 9 9 10 10 11 11 10 10 9 9 9 10 10 9 8 8 8 6 4 3 3 2 2 1 1 1 3 5 4 2 2 6 12 13 13 13 12 9 4 6 10 11 11 9 8 10 12 11 9 10 11 12 13 10 11 16 17 16 14 12 7 10 14
3 3 4 3 5 2 2 2 9 9 9 7 6 6 5 5 3 6 10 9 8 7 7 7 9 8 8 10 9 9 11 11 9 10 11 11 11 11 11 10 9 9 9 9 8 8 9 9 6 4 3 3 2 2 2 2 10 12 12 13 12 7 6 6 8 9 12 13 13 11 10 9 9 10 10 11 11 12 11 9 10 12 15 15 12 10 9
4 5 6 8 6 4 4 2 3 3 5 6 4 8 8 9 4 6 7 9 9 9 9 7 4 5 7 7 8 10 10 9 12 12 10 11 11 9 7 8 10 12 13 12 10 10 11 10 8 7 8 7 3 1 3 2 5 10 13 15 14 16 17 7 5 6 8 9 10 10 9 8 8 9 9 9 10 10 10 10 9 8 5 6 11 13 7
4 3 2 4 5 3 2 2 3 3 3 3 4 7 3 7 3 9 11 10 11 10 10 9 8 8 9 7 6 9 11 12 11 11 12 11 9 8 9 10 11 12 12 13 12 11 10 9 9 8 8 8 9 5 5 5 6 6 6 8 15 15 13 13 8 8 8 9 10 10 10 8 8 8 7 7 7 7 7 8 9 9 6 5 5 7 13
4 3 5 9 9 8 3 3 5 5 6 5 5 3 1 3 8 8 9 8 7 8 9 8 7 7 6 5 5 8 8 9 10 11 9 8 9 9 9 9 10 12 13 13 12 11 11 11 10 11 10 11 11 11 4 7 6 7 7 6 6 11 13 11 10 9 9 8 8 9 9 10 10 10 9 8 6 6 6 8 8 7 8 7 6 7 7
5 7 9 8 7 6 5 4 4 6 6 4 4 4 3 3 7 7 6 7 7 9 6 5 6 7 6 7 7 6 8 8 7 7 8 8 8 8 9 9 12 13 14 14 12 10 11 12 12 12 10 10 11 8 8 4 5 5 6 7 8 8 8 9 10 10 9 9 10 13 11 9 8 8 9 9 9 8 7 7 7 9 9 6 6 8 8
7 9 12 12 12 9 5 5 6 5 2 1 1 2 3 5 6 5 6 6 7 7 6 5 5 6 7 6 5 5 5 4 5 8 8 8 9 9 9 11 12 11 11 10 10 10 11 11 11 10 7 8 8 5 5 5 6 6 6 6 7 12 15 14 10 8 8 9 9 8 8 9 8 9 9 8 8 7 7 7 7 6 7 6 6 6 7
8 10 12 10 11 9 7 7 6 3 2 1 1 2 4 5 6 4 4 6 4 4 5 6 6 6 5 4 4 4 5 5 6 6 8 9 9 9 9 9 11 11 11 11 11 11 9 10 10 7 6 7 6 1 3 6 6 7 6 7 7 6 9 12 9 10 8 7 7 7 7 8 8 8 8 7 7 8 7 8 7 6 6 6 5 5 5
9 12 11 9 10 10 8 6 5 5 3 1 2 2 1 1 2 3 3 3 3 3 3 4 4 4 3 3 3 3 3 4 5 6 7 7 8 8 7 7 8 9 10 9 9 9 9 9 7 7 8 8 9 9 8 7 7 7 7 7 6 7 6 7 8 8 8 8 8 7 7 7 7 8 7 7 7 7 7 7 7 7 7 7 6 6 7
11 9 8 6 6 8 8 6 4 5 5 5 3 1 2 2 2 2 2 2 2 2 2 2 3 3 3 3 3 3 4 7 7 7 6 6 6 5 6 8 7 7 8 9 9 8 7 7 8 8 8 8 9 9 9 9 8 7 6 7 7 8 7 7 8 7 7 6 6 7 6 7 7 6 7 8 8 8 7 7 7 7 6 5 5 4 5
7 7 5 7 7 5 6 6 4 2 3 5 7 7 6 4 2 0 0 0 0 1 1 1 2 3 3 4 5 6 5 5 4 4 4 6 6 6 5 7 8 8 9 10 9 8 6 5 6 8 9 8 9 9 9 9 8 8 7 6 7 7 7 7 8 8 7 7 6 6 6 6 6 6 7 9 9 8 8 8 7 6 6 6 6 5 6
1 2 3 5 5 5 3 2 3 5 5 6 6 7 7 7 7 7 6 4 1 0 1 3 2 2 3 3 3 3 3 3 3 3 3 4 5 5 6 8 9 9 9 9 8 7 6 6 11 12 8 8 8 9 9 9 9 8 8 8 7 7 7 6 5 5 5 6 7 7 7 7 7 7 7 7 7 8 8 8 7 7 7 7 7 7 7
2 2 3 3 5 5 5 6 6 6 6 6 7 8 9 8 7 5 6 6 6 6 6 7 6 5 4 3 2 2 2 3 3 4 5 5 6 9 10 9 9 9 9 9 8 6 6 8 12 13 8 7 7 7 8 9 5 6 6 6 6 5 6 6 5 6 5 4 4 6 6 6 6 7 6 6 7 7 7 7 7 6 6 6 6 7 7
6 5 4 5 5 6 9 8 7 6 7 8 6 5 5 5 6 6 6 6 6 7 7 8 7 6 6 6 7 7 7 7 8 8 8 8 8 9 9 8 8 7 8 6 6 5 6 9 12 8 6 5 5 4 5 11 9 7 6 5 5 5 5 5 6 6 7 6 7 7 8 7 7 7 6 6 7 7 7 7 7 7 6 6 6 6 7
9 10 10 6 7 7 8 6 4 5 7 7 6 6 5 6 6 7 8 7 6 6 8 7 8 9 8 8 7 7 7 7 8 9 9 8 7 8 7 6 5 4 3 4 6 7 9 9 6 6 6 6 6 6 3 7 9 4 5 4 5 4 6 5 5 4 3 4 6 6 8 6 5 6 6 7 7 7 7 8 8 7 7 7 7 7 7
7 7 8 9 10 8 8 8 7 6 5 5 6 6 4 5 6 7 8 8 6 6 7 7 9 8 8 8 8 7 6 6 6 8 8 8 7 7 7 9 9 7 5 9 7 8 13 17 10 6 6 5 5 5 5 7 7 5 5 5 4 4 5 5 4 2 4 8 9 7 6 7 6 6 6 6 7 7 7 7 8 7 7 7 7 7 7
4 2 6 7 8 7 7 7 7 6 6 6 6 5 5 5 5 6 7 6 5 6 8 7 8 8 8 7 7 7 6 7 7 7 7 8 8 7 8 8 7 7 7 8 8 9 11 10 9 8 7 7 6 7 6 7 5 4 6 5 6 4 6 6 7 4 3 1 1 5 6 6 6 7 6 7 7 7 7 7 7 7 7 7 6 5 5
4 7 8 8 7 7 6 6 6 7 6 6 5 6 6 6 5 6 5 5 5 6 6 6 8 7 5 6 6 7 8 7 7 7 7 7 6 6 7 6 6 6 11 13 12 11 9 9 9 8 8 8 7 8 7 5 5 2 3 6 5 3 4 5 5 2 5 4 2 4 5 6 6 6 7 7 7 6 6 5 5 5 5 5 5 5 4
6 7 7 6 6 6 7 6 6 6 6 6 5 5 5 5 5 5 5 5 5 5 6 6 7 7 6 6 7 7 6 5 6 4 4 3 1 1 3 2 3 6 13 9 9 8 8 6 6 6 10 9 10 13 3 1 2 2 4 4 3 3 4 3 1 2 6 4 4 4 5 6 6 6 6 6 7 6 6 6 6 5 5 5 5 5 5
8 8 8 8 7 7 7 8 8 8 8 8 6 6 6 5 4 5 5 6 6 6 6 5 5 6 6 6 8 7 7 6 7 6 6 7 7 6 4 4 4 7 12 7 7 7 7 6 4 3 6 12 15 15 3 2 0 1 1 4 4 2 2 3 5 4 5 4 3 4 4 4 5 5 6 6 7 7 7 6 6 6 6 6 6 6 6
12 11 12 12 11 10 9 8 8 7 6 7 10 9 8 9 9 8 9 9 10 10 10 9 8 7 7 7 6 6 6 6 6 6 7 7 7 7 6 5 6 4 9 11 7 6 5 6 10 15 15 17 15 13 8 8 7 6 2 3 3 3 4 3 0 2 1 2 3 3 6 5 5 5 6 7 8 8 8 9 8 7 7 7 7 7 7
12 12 12 12 12 9 8 9 9 9 11 11 12 12 11 11 11 10 9 10 10 10 10 10 10 10 9 8 7 8 9 9 9 8 7 6 7 6 8 10 5 7 14 14 8 8 8 15 15 14 17 18 16 10 7 7 7 7 8 7 4 3 3 1 2 1 3 4 2 4 5 6 6 6 6 6 7 7 7 9 8 7 7 8 7 7 7
12 12 12 11 10 10 10 10 11 13 12 11 10 9 9 10 10 9 9 10 10 9 9 10 10 10 10 10 9 8 8 9 10 10 9 9 9 10 12 16 16 19 14 11 10 10 10 12 14 17 17 17 15 8 8 8 9 8 8 8 8 8 7 3 1 1 4 4 4 5 5 6 7 6 6 6 7 7 7 7 7 7 7 7 7 7 7
12 12 12 12 12 12 12 12 12 11 10 9 7 7 7 8 9 9 9 9 10 11 11 10 9 9 9 10 9 9 7 7 10 9 8 7 8 9 10 10 13 18 18 15 17 19 25 22 20 19 20 17 11 9 9 9 9 8 8 9 9 9 8 7 7 7 4 4 5 5 5 6 6 5 6 7 7 7 7 7 7 6 7 7 7 7 7
11 10 10 11 12 13 12 11 10 9 7 7 7 7 5 7 8 8 8 8 9 8 9 9 9 9 8 8 9 8 8 8 8 6 6 8 9 8 9 12 19 19 13 11 12 11 20 22 21 19 19 15 10 9 9 8 8 8 8 8 8 8 8 9 8 7 7 8 6 2 5 6 5 5 5 6 6 5 4 4 6 7 7 7 6 6 6
9 10 10 10 10 10 10 10 9 7 6 6 8 7 6 5 7 6 5 6 6 6 7 7 7 6 7 7 7 7 8 8 8 8 9 9 10 10 10 10 11 17 17 11 10 11 15 21 19 20 15 10 10 10 9 9 8 8 8 8 8 7 7 9 9 10 9 8 8 8 8 5 1 1 5 7 6 6 5 6 7 8 9 7 6 6 6
9 9 8 8 8 8 9 9 8 7 7 7 7 7 8 8 7 5 4 5 5 6 6 6 5 6 6 6 7 7 8 8 8 9 8 8 8 10 12 9 11 11 11 11 9 9 9 9 10 11 12 10 10 10 10 9 8 9 9 8 8 8 8 8 7 7 8 7 7 8 8 8 8 8 7 4 1 1 2 6 7 7 7 7 7 7 7
9 8 8 8 8 8 8 9 9 8 8 7 7 7 8 7 7 8 9 10 6 3 6 7 6 5 6 6 7 7 7 8 7 7 7 7 7 6 8 11 8 9 9 8 8 8 8 9 10 13 13 10 9 9 10 13 10 9 9 9 9 9 9 9 8 8 8 9 9 8 9 8 8 8 7 7 6 6 6 6 5 3 1 1 3 4 5
Wind_Direction
216 205 205 211 213 190 193 207 197 195 199 200 204 211 184 149 196 227 210 196 200 236 236 240 224 225 242 249 266 228 236 231 165 150 164 181 219 222 200 194 192 188 186 190 189 184 185 186 185 186 187 190 189 188 187 185 183 186 185 185 187 188 190 193 196 195 195 196 195 194 194 195 198 200 202 204 203 199 197 201 203 203 201 198 197 203 206
228 210 208 209 216 209 197 200 209 199 194 202 207 210 195 179 206 201 182 198 216 210 227 216 228 247 246 238 226 178 159 246 229 164 162 173 179 188 212 214 203 195 194 192 187 183 185 183 183 184 187 189 189 188 189 187 188 187 181 187 187 189 193 197 194 192 193 193 194 193 193 196 198 200 201 202 202 202 200 201 202 201 199 198 200 204 205
245 214 209 208 215 212 206 208 208 204 200 204 209 210 207 199 222 205 192 207 235 245 228 246 241 226 236 227 187 149 180 161 190 257 196 177 176 184 190 197 203 202 198 190 184 183 182 183 186 187 189 191 191 191 189 188 189 185 183 187 190 191 196 195 190 190 191 195 192 194 196 197 198 199 201 201 202 203 201 199 200 199 197 199 204 206 204
295 226 207 210 214 218 209 204 204 207 209 210 202 209 196 183 196 198 195 219 241 268 237 237 251 224 218 218 217 153 214 212 169 183 209 190 192 183 188 196 200 202 198 188 184 184 184 187 189 189 190 189 189 193 191 192 190 184 185 188 191 195 196 190 189 190 194 193 193 196 194 198 199 199 200 201 202 201 200 199 199 196 198 203 206 204 204
283 278 218 207 209 218 237 224 212 185 192 214 223 217 192 195 180 182 198 227 210 212 209 208 241 228 206 223 201 171 206 193 177 177 201 213 195 195 192 188 187 187 187 188 189 187 187 190 189 192 187 186 193 195 193 195 186 183 188 190 192 195 193 190 191 191 192 192 196 195 197 198 198 197 199 202 202 199 202 199 195 198 202 203 205 204 202
287 300 257 198 196 217 222 243 157 170 194 192 197 222 229 233 200 201 198 212 209 211 202 192 210 232 220 205 230 189 167 178 190 184 179 192 187 190 195 192 188 185 184 188 189 188 190 192 192 192 187 189 195 195 195 188 183 188 189 191 193 195 193 193 193 191 191 194 195 197 197 196 195 197 199 203 201 199 199 197 199 202 204 204 203 201 204
279 293 279 186 207 213 235 253 164 183 187 182 187 176 267 268 247 285 5 1 295 254 237 198 195 208 149 34 328 326 338 310 185 180 192 188 199 181 179 191 208 200 189 184 187 193 197 195 195 191 191 195 194 192 187 185 190 190 192 192 194 194 194 195 193 191 192 194 196 196 194 194 195 198 200 200 199 199 197 198 200 203 204 205 204 202 203
266 268 248 212 208 197 240 62 46 99 149 164 118 47 7 9 297 174 121 137 119 111 100 160 198 161 146 114 75 37 59 115 267 240 187 185 189 196 193 186 185 182 187 196 196 198 198 195 193 189 191 195 192 193 187 189 191 194 193 193 194 191 194 195 195 193 192 195 196 194 193 193 195 198 197 196 199 195 194 199 204 206 207 206 205 204 203
240 228 236 240 253 123 119 59 27 126 146 166 159 105 292 311 324 150 138 160 130 104 15 260 235 238 76 62 23 0 4 360 109 155 217 216 212 187 196 179 186 184 191 193 203 210 208 198 191 195 198 194 193 188 187 193 193 196 195 196 196 193 196 196 196 195 193 193 193 192 192 192 196 196 195 196 196 188 194 198 200 202 205 206 206 202 199
171 275 266 239 195 188 232 228 246 191 154 127 126 109 19 320 354 268 128 123 117 87 23 9 321 65 84 53 352 326 330 339 12 343 357 167 186 239 218 198 199 203 198 204 203 199 197 197 197 197 195 192 191 189 191 192 193 197 197 201 199 197 199 198 198 195 194 192 192 191 190 194 195 194 192 191 192 187 193 196 200 203 204 204 201 202 199
349 284 227 222 172 239 220 177 155 162 140 126 94 75 48 280 269 284 118 104 89 96 94 45 59 68 80 127 260 289 298 295 312 25 340 335 327 179 205 195 209 208 203 196 192 185 180 193 207 204 197 192 190 195 196 194 193 194 199 203 201 201 203 200 198 195 193 193 192 190 191 195 191 189 190 190 188 183 194 197 202 201 195 196 196 194 201
358 328 286 244 214 81 2 342 334 245 136 96 74 93 234 261 306 298 92 94 97 103 104 94 71 92 109 211 259 268 271 205 165 102 72 5 325 26 186 211 201 202 204 198 196 194 196 205 204 197 192 188 190 195 199 195 193 197 201 203 202 203 203 199 196 194 193 192 191 190 192 190 189 190 186 182 182 187 193 194 195 190 184 186 182 178 160
324 326 296 262 48 23 351 342 324 314 286 83 139 181 207 238 251 54 95 88 102 91 76 75 98 148 175 197 238 307 346 23 31 9 334 213 191 158 139 187 207 197 195 194 200 199 203 208 204 191 187 189 199 207 204 201 199 199 201 202 203 205 202 196 193 192 192 192 191 192 189 185 185 182 181 183 181 184 185 177 167 162 168 166 152 147 149
339 298 291 253 146 169 352 339 319 295 218 188 167 221 183 148 131 60 76 90 55 78 83 89 95 84 86 99 67 46 33 40 357 6 11 20 356 343 348 232 187 176 189 189 204 223 223 226 211 197 184 188 198 198 198 208 217 214 207 203 204 205 200 195 192 190 190 192 191 187 179 175 176 181 182 179 178 179 169 156 153 150 142 137 138 138 136
324 333 289 332 347 311 356 335 324 32 73 216 191 135 114 156 112 90 52 62 46 82 83 72 72 54 40 40 39 39 32 25 12 358 1 3 355 347 338 5 325 163 162 189 204 210 196 173 158 154 178 209 210 204 200 206 211 209 207 208 207 206 199 196 195 191 189 183 180 178 176 176 174 173 169 168 163 156 149 147 143 140 142 140 137 132 127
153 299 281 271 276 291 329 355 339 317 315 191 136 118 98 36 75 89 78 37 34 65 84 73 59 47 40 28 21 27 24 19 10 13 14 8 4 353 342 337 331 332 139 172 173 175 206 193 165 170 172 184 193 204 241 242 234 221 212 203 194 189 190 195 194 192 185 178 174 173 170 167 166 159 160 156 152 151 149 146 145 143 140 135 134 138 142
155 185 264 263 299 308 326 324 292 324 351 2 62 98 98 105 54 58 83 70 49 69 83 65 58 54 40 41 34 41 21 21 19 19 15 18 6 3 360 346 344 339 12 104 81 52 28 13 5 7 52 151 218 299 315 359 3 359 335 325 168 178 181 181 181 180 174 172 170 165 162 158 154 154 151 147 142 145 139 140 142 141 145 145 142 143 142
201 218 239 284 308 326 337 341 348 4 10 21 14 46 88 60 78 66 91 90 80 67 74 87 59 58 45 47 37 33 29 27 23 19 24 18 13 13 16 6 356 14 18 29 37 36 29 23 25 28 23 56 97 86 75 104 112 105 111 114 217 195 180 172 171 165 162 159 155 152 150 153 153 155 154 152 148 151 146 145 144 141 144 141 141 142 144
30 21 289 319 330 320 349 348 1 21 18 22 39 22 12 47 54 63 50 72 74 73 72 81 86 65 46 60 46 36 30 30 26 28 27 24 25 23 27 16 21 40 45 44 39 37 32 17 19 23 47 55 62 71 87 75 83 113 128 147 159 171 175 168 161 157 152 151 145 143 140 141 144 145 146 144 145 145 143 138 137 139 140 145 145 145 143
131 218 298 306 297 286 353 15 8 15 4 358 25 44 20 13 61 61 45 45 49 50 59 59 81 71 58 63 55 49 42 34 26 25 28 23 21 25 40 44 52 55 58 61 58 54 43 32 28 26 27 33 39 47 38 71 114 104 117 136 144 148 155 161 162 159 155 150 145 142 142 141 140 139 144 146 132 126 139 149 145 146 147 150 150 146 140
276 294 18 346 302 346 359 14 14 7 12 3 11 41 42 26 45 64 61 47 51 54 53 47 72 70 53 56 62 63 51 40 31 21 15 20 30 25 33 41 57 65 70 71 67 66 63 55 53 52 40 30 34 46 45 34 51 122 134 141 143 147 144 151 160 157 152 152 148 139 125 100 74 95 128 117 112 114 14 135 139 138 137 133 142 148 149
16 50 9 350 10 311 327 360 2 3 9 13 359 29 53 39 32 47 68 56 45 54 47 47 60 69 58 44 50 61 55 47 36 30 24 16 22 33 31 39 61 83 86 85 71 69 68 68 76 73 70 69 58 57 55 59 60 60 61 66 78 72 58 90 147 153 146 138 135 133 127 123 115 82 48 64 87 132 139 46 93 132 138 148 157 151 154
188 174 349 32 26 336 335 342 345 12 16 25 7 356 34 54 39 35 66 73 58 51 45 40 57 59 58 49 56 57 43 34 32 35 35 32 23 34 35 37 30 32 30 87 124 147 191 267 124 136 138 145 140 125 107 100 89 62 28 78 95 107 98 93 59 19 83 109 116 115 118 119 113 109 98 59 52 52 60 72 89 88 103 130 141 145 142
276 279 246 144 89 73 330 352 6 9 18 50 30 0 349 20 60 52 64 61 71 66 57 50 44 54 58 50 54 59 49 38 33 31 36 42 42 36 37 41 31 27 22 15 1 327 290 75 323 325 2 37 56 119 131 116 101 95 78 50 54 59 106 111 94 86 53 60 78 90 75 82 96 112 113 108 73 42 45 64 69 74 80 115 141 144 149
209 237 155 134 117 108 309 21 30 26 24 48 58 27 2 348 15 59 75 69 58 64 68 61 49 42 58 56 54 55 56 46 37 35 39 43 39 36 35 33 25 16 358 355 11 43 70 94 252 323 360 16 355 327 96 119 117 114 122 127 128 121 87 107 118 122 117 113 108 111 115 117 125 124 124 122 110 94 47 53 64 64 59 64 102 154 155
229 170 132 116 102 70 323 4 43 34 14 17 52 29 358 13 6 54 67 75 66 53 57 58 58 45 53 61 56 54 55 49 42 43 42 38 34 31 26 27 29 33 34 38 49 49 43 40 53 52 43 34 19 328 327 116 118 116 121 120 112 97 120 136 130 140 142 141 137 132 130 132 129 124 118 111 115 117 115 108 71 58 53 45 43 69 78
201 148 129 95 82 70 28 24 120 74 55 320 35 63 5 320 7 58 63 64 66 57 46 32 45 59 52 49 62 59 60 51 46 41 38 34 31 27 21 33 41 45 44 43 43 51 55 47 35 36 35 21 28 39 18 22 89 116 125 121 116 112 111 94 98 114 114 116 114 115 117 114 113 109 107 113 122 126 131 127 123 117 112 57 37 32 57
146 107 86 128 141 109 87 52 56 62 57 24 32 50 27 291 1 52 47 42 45 50 46 25 20 39 53 30 53 60 53 50 48 39 36 26 17 15 22 30 39 46 46 46 43 41 46 52 48 42 40 38 19 43 78 83 91 92 96 121 127 126 123 124 126 125 121 116 115 115 112 101 94 91 94 103 108 110 103 105 116 119 104 75 66 54 56
106 110 116 100 101 98 81 31 39 46 49 26 22 31 309 41 33 41 47 42 45 55 46 26 21 23 33 24 39 67 64 57 52 43 33 23 18 18 17 26 41 45 46 41 37 39 46 46 45 43 33 31 34 359 11 92 92 108 118 117 101 114 125 131 128 120 113 110 105 109 110 116 118 118 115 99 89 99 112 125 125 122 113 122 105 76 60
95 94 87 89 105 119 114 95 68 40 41 22 25 17 2 59 64 35 32 39 37 51 42 35 30 26 14 30 22 34 61 73 68 57 46 31 27 25 23 29 42 39 38 33 29 31 41 45 47 45 33 30 30 0 332 51 80 84 93 97 101 101 104 109 114 113 113 113 117 117 117 119 118 118 116 124 135 139 135 128 118 119 114 125 128 134 135
76 94 97 93 76 57 79 95 89 81 90 120 61 65 54 62 69 47 33 32 35 36 22 28 25 22 19 19 10 12 10 18 63 72 58 43 36 32 33 42 53 46 37 29 24 27 37 42 50 50 43 47 51 357 295 83 81 78 72 71 75 87 94 96 98 102 106 110 114 112 111 116 120 122 124 129 127 126 125 122 121 120 129 136 146 156 153
101 92 87 88 92 85 54 50 50 21 304 281 95 86 76 80 84 77 55 45 33 36 27 23 21 19 9 2 17 28 32 24 9 34 64 59 45 36 36 45 58 58 49 39 29 23 30 44 46 36 48 69 71 45 14 54 73 72 74 85 88 89 93 96 96 100 102 103 107 112 118 118 123 127 134 137 132 127 129 128 128 132 133 144 159 154 151
97 88 79 83 84 79 70 41 39 33 9 153 152 133 81 82 90 93 78 72 55 38 42 25 16 16 12 20 23 25 33 35 40 26 23 39 55 50 46 51 51 59 60 52 42 31 28 30 22 22 42 52 60 56 48 50 64 79 77 79 82 86 86 85 97 106 110 116 121 126 130 133 138 143 141 131 120 124 131 132 136 147 160 166 166 163 177
76 80 92 79 95 110 108 103 87 68 45 43 33 62 76 55 67 71 75 78 77 57 59 56 19 5 2 18 32 42 47 48 36 19 13 14 15 32 54 54 48 51 56 55 50 43 33 28 25 20 22 43 54 56 55 60 63 64 84 96 98 99 97 99 97 97 106 113 122 129 129 131 132 132 129 131 136 142 139 143 151 163 156 146 148 150 175
81 83 72 87 99 116 131 132 133 139 97 57 52 53 63 63 39 13 148 83 149 240 281 319 357 12 29 38 28 13 29 58 62 54 29 18 10 1 18 48 48 44 41 37 39 36 29 41 52 43 34 40 48 54 51 50 62 70 51 64 81 86 92 106 109 117 118 118 113 109 112 120 129 129 138 141 150 149 148 151 154 154 149 151 149 150 165
147 106 124 139 166 174 178 152 108 85 77 79 72 63 50 48 48 45 46 36 9 312 271 274 295 22 40 34 41 33 19 6 22 37 28 14 357 353 16 34 46 45 39 33 23 17 20 39 54 62 61 44 45 47 45 37 37 46 56 58 52 71 82 70 68 77 80 109 123 128 133 137 138 143 151 151 154 149 153 146 150 156 156 157 151 152 152
53 112 128 96 73 61 61 65 74 78 72 65 61 60 53 43 42 39 39 35 38 45 56 66 69 58 41 27 46 46 41 29 17 10 3 13 32 43 31 28 31 41 37 30 357 355 26 44 44 41 50 66 60 77 86 71 13 18 30 55 76 73 76 73 72 82 72 69 94 115 119 123 128 143 149 149 152 154 145 141 142 145 152 149 146 143 149
57 46 69 86 65 57 68 60 54 59 68 63 57 60 66 61 49 49 47 45 43 48 57 60 66 66 58 53 49 42 40 46 53 53 53 47 45 54 43 34 23 26 36 15 343 359 30 56 57 45 29 28 53 41 77 96 86 62 47 69 93 95 103 113 114 116 117 119 124 124 120 139 144 152 151 153 150 145 141 138 141 144 144 147 151 156 160
45 69 42 49 101 98 96 98 87 68 63 67 63 53 48 58 59 59 56 52 48 59 63 62 63 59 53 54 48 41 40 43 51 54 51 40 38 53 52 37 26 23 28 27 36 38 37 40 35 34 48 46 37 38 64 102 97 73 66 75 83 97 87 87 101 97 94 111 93 101 122 142 140 148 149 154 147 143 143 145 144 146 147 152 155 162 165
50 65 96 82 74 71 72 68 59 54 57 60 66 59 43 55 57 63 61 55 41 50 62 62 63 62 57 54 51 46 37 46 60 63 55 47 42 44 35 25 11 352 15 50 46 46 44 43 40 29 23 13 36 48 45 76 84 76 78 84 68 68 94 103 65 57 138 136 148 161 139 137 143 139 139 140 143 143 138 140 141 146 150 153 158 161 165
117 116 75 68 68 64 71 77 74 67 64 58 52 49 47 56 59 64 61 58 47 47 54 57 64 62 57 58 62 61 56 53 52 53 54 55 48 42 42 29 355 5 29 50 55 51 46 41 35 30 8 4 355 25 32 52 60 88 103 80 64 70 89 83 118 138 278 259 177 144 134 136 133 130 133 132 137 141 144 143 148 151 155 158 162 153 146
22 59 61 61 59 56 52 49 54 54 45 42 46 48 49 51 60 66 63 60 54 52 62 69 79 78 72 68 70 64 60 55 55 47 52 63 60 44 50 20 354 28 51 51 49 48 41 43 35 14 4 3 346 18 41 52 57 347 79 114 134 159 114 118 125 113 288 254 169 138 130 135 132 137 131 128 132 136 135 127 120 124 127 119 111 109 114
60 63 61 59 52 46 43 45 44 46 41 27 23 34 49 59 64 62 58 55 57 54 53 48 46 48 47 48 52 54 49 41 43 37 36 18 12 57 86 35 350 49 68 67 65 52 49 40 53 46 9 11 6 358 65 105 138 203 198 141 131 150 134 119 123 184 233 242 140 128 131 139 138 135 118 112 107 108 115 121 128 125 114 106 110 116 128
45 45 43 45 43 41 41 36 34 31 34 24 22 23 22 32 53 62 54 48 46 49 57 53 49 47 46 49 58 57 47 42 43 37 47 33 25 18 19 32 11 47 65 76 75 69 60 47 37 37 14 37 42 11 350 99 83 258 138 116 151 161 178 189 192 202 167 171 126 139 140 116 115 121 120 115 109 109 112 113 117 118 118 115 111 105 101
62 63 61 60 58 56 52 50 48 49 46 45 41 40 43 43 41 46 60 58 55 51 49 47 44 42 41 40 45 48 48 43 45 38 41 30 30 14 346 15 28 31 48 55 63 68 62 47 46 43 30 25 34 37 20 17 10 1 10 75 106 112 85 76 44 112 89 92 113 137 114 119 119 120 120 126 128 128 127 126 126 125 121 120 120 119 123
57 55 53 52 49 49 51 53 47 44 44 44 46 44 49 55 53 51 49 54 55 55 57 56 53 45 41 42 39 39 42 44 37 35 38 38 43 20 16 34 26 44 48 50 53 51 46 43 44 47 38 29 26 22 18 25 30 37 32 14 9 54 91 112 265 316 66 84 82 100 115 120 120 124 126 129 133 128 130 127 128 134 138 137 143 145 149
53 49 46 45 41 36 39 43 45 46 42 41 41 42 42 51 54 52 51 54 54 50 46 48 50 47 47 47 44 39 41 49 44 30 25 31 30 32 31 35 41 46 46 47 49 46 42 40 38 41 46 41 34 27 25 29 32 29 29 35 36 23 8 20 93 59 89 123 125 112 116 123 128 127 128 126 129 131 134 127 133 144 149 145 144 143 148
52 49 44 43 42 38 39 38 40 41 41 40 42 43 42 50 54 53 50 51 53 53 53 51 50 48 49 49 48 49 45 56 61 29 9 31 37 38 37 43 45 49 47 43 42 38 37 36 35 37 40 39 31 28 29 32 32 30 30 36 31 26 27 32 26 12 19 81 98 106 113 120 126 127 133 135 143 149 150 145 148 155 157 156 157 157 156
51 51 46 43 41 39 39 40 36 31 24 29 40 32 28 51 54 48 49 52 55 58 58 55 54 54 52 52 53 49 47 50 66 65 25 40 42 41 38 41 43 44 43 45 40 38 38 37 35 34 34 36 34 32 32 32 32 34 33 31 36 36 30 28 24 31 35 17 4 52 132 139 146 142 143 149 151 146 142 151 159 162 169 166 159 164 161
49 47 43 40 38 38 35 38 36 28 17 32 42 32 22 32 50 49 51 58 64 71 65 64 64 59 55 55 52 51 49 51 52 52 49 47 46 45 41 44 46 46 47 45 42 39 35 37 37 36 34 28 25 28 29 31 35 36 31 27 30 37 33 27 33 36 34 34 39 25 8 359 347 189 166 165 161 165 168 172 172 171 167 163 160 165 167
49 49 45 40 42 43 43 45 42 37 34 34 37 37 37 35 29 10 16 60 80 74 72 59 56 59 68 57 57 50 49 48 52 56 56 51 52 54 56 50 47 48 45 44 42 38 36 38 37 36 33 30 28 25 24 25 31 32 33 32 29 24 22 25 23 20 27 40 43 32 27 27 26 11 0 360 2 200 187 169 162 165 170 172 171 174 176
56 49 43 39 40 37 37 32 30 28 26 25 28 31 37 39 40 34 25 19 29 69 92 90 63 40 55 64 55 49 50 56 56 50 53 55 56 53 52 54 52 46 46 45 42 39 39 35 36 37 37 34 28 25 24 27 27 29 33 36 37 34 33 28 21 25 27 25 28 31 30 28 24 23 16 15 29 41 32 6 354 347 338 242 193 181 181